This demonstration page uses our WeatherBlox Daily Observations layout. Learn more.

Left ArrowRight Arrow

Hourly Observations for August 18, 2018

Temp ( °F °C ) Dew Point ( °F °C ) Humidity (%) Winds ( mph kmh ) Pressure ( in mb ) Visibility ( mi km ) Precip ( " mm )
12:59 am 00:59 Partly Cloudy 81 27.2 75 23.9 82 82 SSW 12 19 30.03 1017 10 16 0.00 0.00
1:59 am 01:59 Partly Cloudy 81 27.2 75 23.9 82 82 SSW 8 13 30.01 1016 10 16 0.00 0.00
2:59 am 02:59 Partly Cloudy 81 27.2 75 23.9 82 82 SW 8 13 30.00 1016 10 16 0.00 0.00
3:59 am 03:59 Mostly Clear 80 26.7 74 23.3 82 82 SW 9 15 29.99 1016 10 16 0.00 0.00
4:59 am 04:59 Mostly Clear 79 26.1 74 23.3 85 85 SSW 9 15 29.99 1016 10 16 0.00 0.00
5:59 am 05:59 Partly Cloudy 79 26.1 73 22.8 82 82 SW 10 17 29.99 1016 10 16 0.00 0.00
6:59 am 06:59 Mostly Cloudy 79 26.1 73 22.8 82 82 SW 9 15 29.99 1016 10 16 0.00 0.00
7:59 am 07:59 Mostly Cloudy 79 26.1 73 22.8 82 82 SW 10 17 29.98 1015 10 16 0.00 0.00
8:59 am 08:59 Mostly Cloudy 81 27.2 73 22.8 77 77 SW 13 20 29.97 1015 10 16 0.00 0.00
9:59 am 09:59 Mostly Cloudy 84 28.9 74 23.3 72 72 SW 14 22 29.98 1015 10 16 0.00 0.00
10:59 am 10:59 Mostly Cloudy 86 30 73 22.8 65 65 SW 12 19 29.97 1015 10 16 0.00 0.00
11:59 am 11:59 Mostly Cloudy 87 30.6 73 22.8 63 63 SW 12 19 29.95 1014 10 16 0.00 0.00
1:59 pm 13:59 Mostly Cloudy 87 30.6 71 21.7 59 59 WSW 12 19 29.91 1013 10 16 0.00 0.00
2:59 pm 14:59 Mostly Cloudy 88 31.1 72 22.2 59 59 W 12 19 29.88 1012 10 16 0.00 0.00
3:59 pm 15:59 Mostly Cloudy 88 31.1 73 22.8 61 61 WSW 10 17 29.86 1011 10 16 0.00 0.00
4:59 pm 16:59 Mostly Cloudy with Thunderstorms 88 31.1 72 22.2 59 59 WSW 10 17 29.85 1011 10 16 0.00 0.00
5:46 pm 17:46 Cloudy with Thunderstorms 80 26.7 70 21.1 71 71 NW 23 37 29.88 1012 10 16 0.00 0.00
5:59 pm 17:59 Cloudy with Thunderstorms 79 26.1 71 21.7 77 77 WNW 18 30 29.89 1012 10 16 0.00 0.00
6:59 pm 18:59 Cloudy with Light Rain 77 25 72 22.2 85 85 W 14 22 29.89 1012 4 6 0.01 0.25
7:59 pm 19:59 Cloudy with Light Rain 75 23.9 72 22.2 90 90 SW 8 13 29.89 1012 5 8 0.09 2.29
8:59 pm 20:59 Cloudy 75 23.9 72 22.2 90 90 Calm 29.88 1012 10 16 0.02 0.51
9:59 pm 21:59 Cloudy with Light Rain 75 23.9 72 22.2 90 90 SW 8 13 29.91 1013 9 14 0.00 0.03
10:59 pm 22:59 Cloudy 75 23.9 72 22.2 90 90 SW 6 9 29.90 1013 10 16 0.00 0.03
11:59 pm 23:59 Mostly Cloudy 74 23.3 72 22.2 94 94 SSW 3 6 29.89 1012 10 16 0.00 0.00

Powered by AerisWeather